Zurück zum Katalog

STARLINK-37117

AktivKommunikationSSO
NORAD 68212·PAYLOAD·🇺🇸 United States

Gestartet Mar 17, 2026 von Vandenberg Space Force Base

Loading…

Nächste Überflüge (nächste 24 Stunden)

TLE

AktuellSource: CelesTrak SupGP

Epoche: Sep 14, 2026, 23:24 UTC

1 68212C 26053F   26257.97548611  .00074251  00000+0  23058-2 0  2573
2 68212  97.2846 131.7833 0002269  92.9820 267.5083 15.33387995    17

Verfolge STARLINK-37117 in Echtzeit mit AllMySat

Download on the App Store